This is the latest recevied weather packets stored in our database for station/object DB0NLS-15. If no packets are shown the sender has not sent any weather packets the latest 10 day(s).
| Time | Temp. | Humidity | Pressure | Rain* | Wind** | Luminosity | Snow |
|---|---|---|---|---|---|---|---|
| 1777553122 | 15.56° C | 38% | 1019.1 hPa | 0 mm | - | - | - |
| 1777552519 | 16.11° C | 38% | 1019.3 hPa | 0 mm | - | - | - |
| 1777551916 | 15° C | 39% | 1019.4 hPa | 0 mm | - | - | - |
| 1777551374 | 14.44° C | 38% | 1019.4 hPa | 0 mm | - | - | - |
| 1777550771 | 15° C | 39% | 1019.6 hPa | 0 mm | - | - | - |
| 1777550169 | 13.89° C | 39% | 1019.5 hPa | 0 mm | - | - | - |
| 1777549566 | 14.44° C | 38% | 1019.6 hPa | 0 mm | - | - | - |
| 1777548963 | 14.44° C | 37% | 1019.7 hPa | 0 mm | - | - | - |
| 1777548361 | 14.44° C | 38% | 1019.8 hPa | 0 mm | - | - | - |
| 1777547758 | 13.89° C | 38% | 1019.8 hPa | 0 mm | - | - | - |
| 1777547156 | 13.89° C | 37% | 1019.8 hPa | 0 mm | - | - | - |
| 1777546553 | 13.89° C | 37% | 1020.1 hPa | 0 mm | - | - | - |
| 1777545950 | 13.89° C | 38% | 1020.3 hPa | 0 mm | - | - | - |
| 1777545348 | 13.89° C | 37% | 1020.3 hPa | 0 mm | - | - | - |
| 1777544745 | 13.33° C | 37% | 1020.3 hPa | 0 mm | - | - | - |
| 1777544142 | 13.33° C | 35% | 1020.5 hPa | 0 mm | - | - | - |
| 1777543540 | 12.78° C | 36% | 1020.6 hPa | 0 mm | - | - | - |
| 1777542937 | 12.78° C | 37% | 1020.6 hPa | 0 mm | - | - | - |
| 1777542334 | 13.33° C | 36% | 1020.7 hPa | 0 mm | - | - | - |
| 1777541732 | 13.33° C | 36% | 1020.8 hPa | 0 mm | - | - | - |
| 1777541129 | 12.22° C | 37% | 1021 hPa | 0 mm | - | - | - |
| 1777540527 | 12.22° C | 37% | 1021 hPa | 0 mm | - | - | - |
| 1777539924 | 11.67° C | 37% | 1021.1 hPa | 0 mm | - | - | - |
| 1777539321 | 11.67° C | 38% | 1021.1 hPa | 0 mm | - | - | - |
| 1777538718 | 11.67° C | 38% | 1021.1 hPa | 0 mm | - | - | - |
* Rain latest hour (hover to see other rain measurements)
** Current wind speed in m/s (hover to see current wind gust speed)